Time,TemperatureF,DewpointF,PressureIn,WindDirection,WindDirectionDegrees,WindSpeedMPH,WindSpeedGustMPH,Humidity,HourlyPrecipIn,Conditions,Clouds,dailyrainin,SoftwareType,DateUTC
2013-01-06 16:12:00,29.0,24.0,30.18,NNW,331,3.0,8.0,82,0.00,,,0.01,,2013-01-06 21:12:00,
2013-01-06 16:22:00,29.0,25.0,30.19,NNW,333,4.0,8.0,83,0.00,,,0.01,,2013-01-06 21:22:00,
2013-01-06 16:33:00,29.0,25.0,30.20,NNW,344,2.0,6.0,84,0.00,,,0.01,,2013-01-06 21:33:00,
2013-01-06 16:42:00,29.0,25.0,30.20,NNW,344,2.0,6.0,84,0.00,,,0.01,,2013-01-06 21:42:00,
2013-01-06 16:53:00,29.0,25.0,30.20,NW,321,3.0,7.0,84,0.00,,,0.01,,2013-01-06 21:53:00,
2013-01-06 17:02:00,29.0,25.0,30.21,NW,318,2.0,6.0,84,0.00,,,0.01,,2013-01-06 22:02:00,
2013-01-06 17:12:00,29.0,25.0,30.21,NW,318,2.0,6.0,84,0.00,,,0.01,,2013-01-06 22:12:00,
2013-01-06 17:22:00,29.0,25.0,30.22,NW,318,1.0,5.0,85,0.00,,,0.01,,2013-01-06 22:22:00,
2013-01-06 17:33:00,29.0,25.0,30.23,NW,319,2.0,6.0,84,0.00,,,0.01,,2013-01-06 22:33:00,
2013-01-06 17:43:00,29.0,25.0,30.23,NW,319,2.0,6.0,84,0.00,,,0.01,,2013-01-06 22:43:00,
2013-01-06 17:53:00,29.0,25.0,30.24,NW,319,2.0,4.0,85,0.00,,,0.01,,2013-01-06 22:53:00,
2013-01-06 18:02:00,29.0,25.0,30.25,NW,319,3.0,5.0,86,0.00,,,0.01,,2013-01-06 23:02:00,
2013-01-06 18:12:00,29.0,25.0,30.25,NW,319,3.0,5.0,86,0.00,,,0.01,,2013-01-06 23:12:00,
2013-01-06 18:22:00,29.0,25.0,30.26,NW,319,2.0,4.0,86,0.00,,,0.01,,2013-01-06 23:22:00,
2013-01-06 18:33:00,29.0,25.0,30.26,NW,319,2.0,3.0,86,0.00,,,0.01,,2013-01-06 23:33:00,
2013-01-06 18:42:00,29.0,25.0,30.26,NW,319,2.0,3.0,86,0.00,,,0.01,,2013-01-06 23:42:00,
2013-01-06 18:53:00,28.0,24.0,30.27,NW,319,2.0,3.0,86,0.00,,,0.01,,2013-01-06 23:53:00,
2013-01-06 19:02:00,28.0,24.0,30.27,NW,319,1.0,3.0,86,0.00,,,0.01,,2013-01-07 00:02:00,
2013-01-06 19:12:00,28.0,24.0,30.27,NW,319,1.0,3.0,86,0.00,,,0.01,,2013-01-07 00:12:00,
2013-01-06 19:23:00,27.0,23.0,30.28,NW,318,1.0,3.0,86,0.00,,,0.01,,2013-01-07 00:23:00,
2013-01-06 19:32:00,27.0,24.0,30.29,NW,319,0.0,2.0,87,0.00,,,0.01,,2013-01-07 00:32:00,
2013-01-06 19:42:00,27.0,24.0,30.29,NW,319,0.0,2.0,87,0.00,,,0.01,,2013-01-07 00:42:00,
2013-01-06 19:53:00,26.0,23.0,30.30,NW,318,1.0,2.0,87,0.00,,,0.01,,2013-01-07 00:53:00,
2013-01-06 20:02:00,26.0,23.0,30.31,NW,318,2.0,4.0,89,0.00,,,0.01,,2013-01-07 01:02:00,
2013-01-06 20:12:00,26.0,23.0,30.31,NW,318,2.0,4.0,89,0.00,,,0.01,,2013-01-07 01:12:00,
2013-01-06 20:22:00,27.0,24.0,30.32,NW,318,2.0,5.0,89,0.00,,,0.01,,2013-01-07 01:22:00,
2013-01-06 20:32:00,27.0,24.0,30.32,NW,318,2.0,5.0,88,0.00,,,0.01,,2013-01-07 01:32:00,
2013-01-06 20:42:00,27.0,24.0,30.32,NW,318,2.0,5.0,88,0.00,,,0.01,,2013-01-07 01:42:00,
2013-01-06 20:53:00,27.0,24.0,30.32,NW,319,2.0,3.0,88,0.00,,,0.01,,2013-01-07 01:53:00,
2013-01-06 21:02:00,27.0,24.0,30.32,NW,319,1.0,5.0,88,0.00,,,0.01,,2013-01-07 02:02:00,
2013-01-06 21:12:00,27.0,24.0,30.32,NW,319,1.0,5.0,88,0.00,,,0.01,,2013-01-07 02:12:00,
2013-01-06 21:22:00,26.0,23.0,30.33,NW,318,1.0,4.0,88,0.00,,,0.01,,2013-01-07 02:22:00,
2013-01-06 21:32:00,26.0,23.0,30.33,NW,318,0.0,1.0,88,0.00,,,0.01,,2013-01-07 02:32:00,
2013-01-06 21:42:00,26.0,23.0,30.33,NW,318,0.0,1.0,88,0.00,,,0.01,,2013-01-07 02:42:00,
2013-01-06 21:53:00,25.0,22.0,30.33,NW,318,0.0,1.0,88,0.00,,,0.01,,2013-01-07 02:53:00,
2013-01-06 22:02:00,25.0,22.0,30.34,NW,319,1.0,2.0,88,0.00,,,0.01,,2013-01-07 03:02:00,
2013-01-06 22:12:00,25.0,22.0,30.34,NW,319,1.0,2.0,88,0.00,,,0.01,,2013-01-07 03:12:00,
2013-01-06 22:22:00,24.0,21.0,30.34,NW,318,0.0,1.0,88,0.00,,,0.01,,2013-01-07 03:22:00,
2013-01-06 22:32:00,23.0,20.0,30.35,NW,319,0.0,3.0,88,0.00,,,0.01,,2013-01-07 03:32:00,
2013-01-06 22:42:00,23.0,20.0,30.35,NW,319,0.0,3.0,88,0.00,,,0.01,,2013-01-07 03:42:00,
2013-01-06 22:53:00,22.0,19.0,30.35,NW,318,1.0,2.0,89,0.00,,,0.01,,2013-01-07 03:53:00,
2013-01-06 23:02:00,22.0,20.0,30.35,NW,319,0.0,3.0,91,0.00,,,0.01,,2013-01-07 04:02:00,
2013-01-06 23:12:00,22.0,20.0,30.35,NW,319,0.0,3.0,91,0.00,,,0.01,,2013-01-07 04:12:00,
2013-01-06 23:22:00,22.0,20.0,30.35,NW,318,0.0,0.0,91,0.00,,,0.01,,2013-01-07 04:22:00,
2013-01-06 23:32:00,22.0,20.0,30.35,NW,319,0.0,0.0,91,0.00,,,0.01,,2013-01-07 04:32:00,
2013-01-06 23:42:00,22.0,20.0,30.35,NW,319,0.0,0.0,91,0.00,,,0.01,,2013-01-07 04:42:00,
2013-01-06 23:52:00,21.0,19.0,30.35,NW,319,0.0,0.0,91,0.00,,,0.01,,2013-01-07 04:52:00,